Location: *
(32.3758°S, 63.1185°E)
Time: 18:53:48
(UTC+00:00)

Cosmos 1331 Rocket - Pass Details

Date: 02 June 2023
Orbit: 748 x 776 km, 74.0° (Epoch: 23 September)

Event Time Altitude Azimuth Distance (km) Brightness Sun altitude
Rises 14:05:16 0° 349° (N) 3,193 7.6 -15.6°
Reaches altitude 10° 14:07:38 10° 351° (N) 2,273 6.8 -16.1°
Maximum altitude 14:12:46 76° 75° (ENE) 784 3.9 -17.2°
Enters shadow 14:17:05 15° 159° (SSE) 1,962 5.8 -18.0°
